Regional Weather Roundup
Issued by NWS

Home | Current Version | Previous Version | Text Only | Print | Product List | Glossary Off
Versions: 1 2 3 4 5 6 7 8 9 10 11 12 13 14 15 16 17 18 19 20 21 22 23 24 25 26 27 28 29 30 31 32 33 34 35 36 37 38 39 40 41 42 43 44 45 46 47 48 49 50

000
ASUS45 KCYS 172310
RWRWY

WYOMING REGIONAL WEATHER ROUNDUP
NATIONAL WEATHER SERVICE CHEYENNE WY
500 PM MDT WED SEP 17 2014

NOTE:  "FAIR" INDICATES FEW OR NO CLOUDS BELOW 12,000 FEET
WITH NO SIGNIFICANT WEATHER AND/OR OBSTRUCTIONS TO VISIBILITY.

WYZ001-180000-
YELLOWSTONE NATIONAL PARK

CITY           SKY/WX    TMP DP  RH WIND       PRES   REMARKS
LK YELLOWSTONE   N/A     67  36  31 VRB3      30.22R
W YELLOWSTONE  NOT AVBL

$$
WYZ002>013-054>058-071-098>099-180000-
NORTHERN WYOMING

CITY           SKY/WX    TMP DP  RH WIND       PRES   REMARKS
JACKSON        MOSUNNY   77  39  25 CALM      30.07F
CODY           MOSUNNY   81  43  26 SE8G21    29.97R
GREYBULL       MOSUNNY   85  42  22 E6        29.88F
WORLAND        MOSUNNY   86  44  23 CALM      29.90F
SHERIDAN       SUNNY     85  46  25 CALM      29.91F
BUFFALO        SUNNY     82  42  24 E5        29.98S
GILLETTE       SUNNY     83  45  26 NE9       29.93F
HULETT         FAIR      81  43  26 MISG      29.95
NEWCASTLE      FAIR      84  32  15 S7        29.94

$$
WYZ014>020-022>026-101>103-180000-
CENTRAL WYOMING

CITY           SKY/WX    TMP DP  RH WIND       PRES   REMARKS
BIG PINEY      LGT RAIN  67  50  54 NE7       30.15F
PINEDALE       MOCLDY    73  37  27 N13       30.16S
DUBOIS         FAIR      75  32  20 N10       30.10F
LANDER         MOSUNNY   86  31  13 W17G23    29.97F
RIVERTON       CLOUDY    81  34  18 N13G33    30.01S
CASPER         MOSUNNY   84  33  16 NW7       30.00F
DOUGLAS        PTSUNNY   81  39  22 W16G25    29.99S

$$
WYZ021-027>030-104>119-180000-
SOUTHERN WYOMING

CITY           SKY/WX    TMP DP  RH WIND       PRES   REMARKS
EVANSTON       PTSUNNY   77  34  21 S6        30.14F
KEMMERER       CLEAR    N/A N/A N/A SW7       30.16F
FORT BRIDGER   FAIR      80  40  24 E10       30.17F
ROCK SPRINGS   MOSUNNY   80  34  19 NW7       30.11F
DIXON          FAIR      82  34  17 W8        30.13F
RAWLINS        MOSUNNY   78  33  19 NW7       30.13F
SARATOGA       FAIR      73  37  27 CALM      30.17F
LARAMIE        PTSUNNY   70  41  34 NW7       30.19F
CHEYENNE       LGT RAIN  73  41  31 NW8G18    30.12R
TORRINGTON     MOSUNNY   81  44  27 W6        29.94S
PINE BLUFFS    FAIR      79  36  21 NE7       30.03S

$$


USA.gov is the U.S. government's official web portal to all federal, state and local government web resources and services.